Wind_Speed
20 20 20 18 16 16 14 11 9 9 10 12 14 18 24 26 24 27 29 29 30 31 32 33 35 36 36 36 35 33 28 22 15 10 12 14 15 15 14 14 15 17 18 18 18 17 17 16 15 14 12 11 10 10 10 9 9 7 4 3 4 5 6 7 8 8 8 8 8 8 8 8 9 9 8 7 5 4 3 2 2 4 5 6 6
20 21 21 20 18 16 15 14 11 11 12 13 15 16 21 24 22 24 27 27 28 28 29 31 31 32 33 33 33 33 32 30 27 22 16 13 13 16 17 17 17 18 19 20 20 19 19 18 18 17 15 12 10 11 14 14 14 12 10 7 6 6 6 6 7 8 8 9 9 9 8 8 8 9 9 8 7 6 5 3 3 3 4 5 5
20 20 20 20 20 18 15 15 15 15 15 15 17 17 19 21 19 21 24 25 26 27 27 28 29 29 29 29 30 30 31 30 29 28 25 21 17 14 14 17 18 19 20 21 22 22 21 21 20 19 18 16 13 14 17 17 19 19 15 12 10 8 7 6 7 7 8 9 9 10 10 9 9 9 9 10 9 8 7 6 5 4 5 5 5
21 21 20 19 19 19 16 16 16 17 17 17 17 17 18 17 16 18 21 22 24 25 26 26 26 27 27 27 27 27 27 27 28 27 26 25 23 20 16 14 15 18 21 22 23 23 23 23 22 21 21 20 18 19 20 20 22 22 20 17 14 11 8 7 7 7 8 9 10 11 11 11 11 10 10 10 11 10 9 8 7 6 5 5 6
21 22 22 20 18 19 18 17 16 17 18 19 19 18 17 15 14 16 19 20 22 23 24 24 25 25 24 25 24 24 24 24 25 25 25 24 23 22 20 18 15 14 17 20 23 24 25 25 25 24 24 24 24 23 23 23 23 22 21 21 19 15 12 9 8 8 8 8 10 11 12 13 13 12 11 10 11 11 11 10 9 8 7 6 6
21 22 23 22 20 19 19 18 17 17 19 21 21 20 17 14 13 15 19 21 22 22 23 23 24 24 24 23 23 22 22 22 22 22 22 22 22 21 20 18 17 15 14 15 19 22 25 27 27 27 27 28 29 28 26 23 21 21 19 20 21 20 17 14 12 10 9 8 9 10 11 13 14 14 13 12 11 11 12 12 12 11 9 8 7
20 21 22 23 22 21 19 18 17 17 19 21 22 22 17 12 11 14 18 22 23 23 23 23 24 24 24 24 24 23 22 22 21 20 20 20 20 20 19 18 16 14 14 13 14 17 21 26 29 30 30 31 32 31 28 24 22 21 21 20 20 21 22 19 17 15 13 9 9 10 11 11 13 14 14 15 14 12 12 13 14 13 12 11 10
19 20 21 22 22 23 20 18 17 17 18 18 20 20 16 12 11 12 17 21 23 24 24 23 24 24 24 24 24 24 24 23 23 21 20 19 19 19 19 18 16 13 12 12 11 12 15 20 25 30 32 33 34 34 31 27 25 23 23 22 20 22 24 22 20 19 18 14 11 12 12 11 11 12 13 15 16 15 14 13 14 15 15 13 12
19 19 20 20 21 22 21 19 18 19 18 17 18 19 17 15 14 15 18 20 21 24 25 24 24 24 24 24 24 24 24 24 24 23 22 20 19 18 19 19 18 14 11 11 11 10 11 14 19 25 31 35 35 35 34 32 28 25 25 25 23 23 25 24 23 22 21 19 16 15 14 13 14 12 11 13 15 17 17 16 15 16 16 16 15
17 18 18 19 20 20 20 20 19 18 17 17 19 20 19 18 18 18 21 22 22 22 24 24 24 24 24 24 24 24 24 24 24 24 24 23 21 19 19 19 19 17 14 11 11 11 10 11 14 18 23 31 36 36 35 35 31 27 27 28 26 25 25 25 26 26 26 24 22 21 18 16 17 17 14 14 16 18 18 18 17 16 17 18 17
17 17 18 18 19 19 20 20 20 19 17 17 18 18 18 18 20 21 21 23 23 21 22 24 25 25 25 25 25 24 25 24 25 25 25 24 24 22 21 20 19 19 17 13 11 11 11 10 12 14 16 20 29 36 37 36 33 30 29 28 27 26 26 27 28 29 28 27 26 26 23 20 20 21 21 20 20 20 20 20 20 19 18 18 19
18 18 18 18 19 19 19 20 20 19 18 17 17 17 18 19 21 22 23 24 23 21 21 24 25 26 26 26 26 25 25 25 25 26 25 25 25 24 22 21 21 20 18 15 12 11 11 11 11 12 12 12 14 24 34 36 34 32 31 30 29 28 27 28 28 29 29 29 29 30 29 26 24 24 24 24 23 22 22 22 23 22 21 20 20
18 18 17 18 18 18 19 19 20 20 19 19 18 18 19 21 22 23 24 25 24 23 23 25 27 27 27 27 27 27 26 26 26 26 26 25 25 25 23 22 21 21 20 18 15 12 11 12 13 15 14 12 12 8 17 30 34 32 31 30 31 31 30 30 29 29 30 30 31 32 32 32 30 29 28 27 25 23 23 24 24 25 24 23 22
17 17 17 18 18 18 19 19 20 21 21 20 20 20 21 21 23 24 25 25 25 25 26 27 28 29 29 29 29 28 27 26 26 26 26 26 25 25 24 22 21 21 21 20 19 16 14 14 14 15 16 15 14 15 8 10 23 29 30 30 31 32 33 33 34 32 31 31 32 32 33 34 35 34 33 32 29 27 25 25 26 26 26 26 25
17 18 19 19 19 20 20 20 20 21 21 22 21 21 21 22 23 24 24 25 25 26 27 28 29 29 30 30 30 29 28 27 26 25 26 26 25 25 25 23 22 21 21 21 21 20 19 18 18 16 16 16 15 14 14 9 4 14 21 25 28 31 33 35 36 37 36 34 34 33 33 34 36 37 36 35 33 32 30 28 28 28 28 28 28
19 20 20 20 21 21 21 21 21 22 23 23 23 23 23 23 23 24 25 25 26 26 27 29 29 30 30 31 30 30 29 28 27 25 26 26 26 26 27 26 24 23 22 22 22 21 21 21 22 22 20 18 16 14 12 10 8 5 8 13 18 24 29 34 37 40 40 40 39 38 37 35 35 37 38 38 37 36 34 32 32 31 30 30 31
21 21 21 22 22 22 22 22 23 24 25 25 25 24 24 23 23 24 25 26 27 27 27 29 30 30 31 31 31 31 30 29 28 27 26 27 27 27 28 28 27 25 24 24 24 23 22 22 23 24 24 24 22 20 17 12 10 9 10 12 15 17 21 27 33 39 43 44 44 44 42 40 38 37 38 39 40 39 38 37 36 35 32 32 32
22 22 22 22 23 23 24 24 25 26 26 27 27 26 26 25 24 24 25 26 27 28 28 29 30 31 32 33 33 33 32 31 29 28 28 28 28 28 29 30 29 28 26 26 27 26 24 23 24 25 26 27 28 28 27 23 19 17 18 19 20 21 22 23 26 31 38 44 48 49 48 46 43 41 39 39 41 42 41 40 39 39 37 34 33
23 23 23 23 24 25 26 26 27 28 28 29 29 29 28 28 27 26 26 26 27 28 28 29 31 32 33 34 35 34 34 33 31 29 29 29 30 31 31 31 31 30 28 28 29 28 27 25 25 26 27 28 29 30 31 34 34 33 33 34 32 30 30 29 29 28 31 38 44 49 52 52 49 47 44 41 40 41 42 42 41 41 41 39 36
24 24 24 25 26 26 27 28 29 30 31 32 32 32 31 31 29 28 27 26 26 26 27 29 31 33 34 35 35 35 35 34 33 31 30 31 31 33 33 33 33 31 29 29 30 29 28 27 27 27 27 28 29 30 31 34 39 42 44 45 44 41 40 38 37 35 33 34 37 43 50 54 55 52 50 47 44 43 43 43 43 43 43 42 40
26 26 26 27 27 28 29 30 31 32 33 34 34 34 34 33 32 30 28 27 26 26 26 29 31 33 34 35 36 36 36 36 35 34 33 32 33 34 35 35 35 34 32 30 31 31 29 28 29 30 30 31 32 33 35 36 39 43 46 46 46 45 44 43 41 40 37 33 33 37 43 50 56 57 55 54 51 49 46 45 45 45 45 45 44
27 27 28 28 29 30 31 32 34 35 36 36 36 36 36 35 33 31 29 28 26 26 27 29 32 34 35 36 36 37 38 38 37 36 35 35 35 36 36 37 37 37 35 33 31 31 31 31 32 33 34 35 36 37 39 41 42 44 45 46 45 44 44 43 42 41 39 35 32 34 39 44 51 56 58 57 56 55 53 50 48 48 48 48 47
28 29 29 30 31 32 33 35 36 37 38 38 38 38 36 36 34 32 30 29 28 28 30 32 34 35 36 37 38 39 40 40 40 39 38 37 37 37 38 39 38 39 39 36 32 31 31 33 34 36 38 41 43 43 44 46 47 47 45 45 45 44 43 42 42 41 40 36 33 33 36 41 46 52 57 59 59 58 58 57 54 51 50 50 50
29 30 30 31 32 34 35 36 38 39 40 40 40 39 37 36 34 32 30 29 30 30 32 35 36 37 38 38 39 39 41 42 42 42 41 40 39 38 40 42 41 40 40 39 37 34 33 34 37 40 44 47 48 49 50 50 51 49 47 46 45 44 42 42 41 41 39 37 34 33 35 38 42 47 53 58 61 61 61 61 60 58 55 53 52
31 32 32 33 34 35 37 38 39 40 40 40 39 39 38 36 34 32 31 31 32 33 34 37 39 39 40 40 40 41 42 44 44 44 43 42 41 42 44 45 44 42 40 41 40 37 37 40 43 47 50 52 53 54 55 53 52 50 47 46 46 44 42 40 39 37 35 34 33 33 35 37 40 44 49 55 60 62 63 64 64 64 62 59 56
33 34 34 35 36 37 38 40 40 41 41 40 40 39 38 36 35 34 34 34 35 35 36 39 40 41 41 41 42 43 44 46 46 45 44 43 42 43 45 47 47 45 42 42 40 39 43 47 50 53 56 58 59 59 59 56 52 50 47 45 44 43 41 40 38 35 33 32 32 32 34 37 39 42 45 50 56 61 64 65 66 68 68 66 63
35 35 36 37 38 39 40 41 42 43 43 42 41 40 39 37 37 37 37 37 36 37 38 41 42 43 42 43 44 45 46 46 46 46 45 43 44 45 46 48 47 46 45 44 43 44 48 52 55 58 60 62 63 63 60 57 53 50 47 45 43 42 41 39 38 37 35 34 34 33 33 35 39 42 44 47 51 56 62 66 68 70 71 71 70
37 37 38 39 40 41 42 43 44 44 44 44 43 41 40 38 38 38 38 37 38 40 42 45 45 44 44 45 47 48 47 47 47 47 46 46 46 47 48 49 48 48 49 49 49 49 51 55 58 61 63 64 66 65 61 57 54 50 46 44 42 41 40 40 39 39 39 40 40 40 38 37 38 41 44 47 50 54 58 64 69 72 74 75 75
39 40 40 40 41 42 44 45 45 45 45 44 43 42 40 39 38 38 38 39 41 43 46 47 47 46 47 49 50 50 49 48 48 48 49 49 50 50 51 51 52 52 53 53 54 54 55 58 62 64 65 66 66 65 62 57 52 48 45 44 43 41 40 40 41 42 43 45 45 46 46 45 43 43 44 47 51 55 58 62 67 73 77 79 79
40 41 42 42 42 44 46 47 46 46 46 45 43 42 41 41 40 39 40 42 44 45 47 48 48 49 50 51 52 51 50 50 49 50 50 51 52 53 54 54 55 55 55 56 58 58 60 63 67 68 68 68 67 65 61 56 50 45 43 42 42 41 39 39 42 46 49 50 51 51 52 52 52 51 51 51 53 56 60 64 67 71 77 81 83
42 43 43 44 44 45 47 48 48 48 48 47 45 44 43 42 42 42 44 45 47 48 49 50 51 52 52 52 52 52 51 50 50 51 52 53 54 54 55 56 56 56 57 60 64 67 67 69 72 73 71 70 68 63 57 52 47 42 41 41 40 39 39 43 47 50 53 54 56 57 57 57 57 56 56 56 56 58 61 64 68 72 76 81 86
44 45 45 46 46 46 48 49 50 50 49 49 47 45 44 44 44 45 46 48 49 50 52 53 55 54 52 52 52 52 51 50 51 52 53 54 55 56 57 58 59 61 64 67 71 74 74 73 74 75 74 72 67 60 51 46 43 41 42 42 42 42 45 49 52 54 56 58 60 61 62 63 63 62 61 60 59 58 60 63 67 72 76 81 85
46 47 47 48 48 49 49 50 52 51 50 50 49 47 46 45 46 47 48 50 51 53 54 56 57 54 51 52 53 52 52 52 53 54 55 56 57 59 60 61 63 64 67 70 73 75 76 76 75 75 74 70 63 54 46 44 44 45 45 45 46 49 52 55 57 59 61 63 66 67 69 70 69 67 65 63 60 57 58 61 65 70 75 80 84
48 49 49 49 50 50 51 52 53 53 52 51 50 49 48 47 48 49 50 51 53 54 56 58 57 54 52 53 55 55 55 55 55 56 57 58 59 60 62 63 64 66 68 71 74 76 77 76 74 72 67 61 54 50 47 47 49 49 49 49 50 53 56 59 62 64 67 71 73 74 75 75 72 68 65 62 58 55 55 57 62 66 72 78 84
50 50 50 51 51 51 52 54 55 54 53 52 51 51 50 49 49 50 51 53 54 56 57 58 58 55 54 56 58 58 58 58 59 59 60 60 61 62 63 65 67 69 71 72 74 74 74 74 71 65 58 52 49 50 51 52 53 53 53 52 52 54 57 61 65 69 73 78 79 80 80 77 72 67 64 60 56 54 53 55 58 64 69 74 81
51 52 52 53 53 53 54 55 56 56 54 54 53 52 51 50 51 52 53 54 56 57 58 59 59 57 56 58 60 60 60 60 61 61 62 62 62 63 65 66 68 69 70 70 71 70 67 65 62 58 52 49 50 52 54 54 56 56 56 56 58 60 64 68 72 76 80 82 82 82 81 77 72 68 64 59 55 54 54 55 57 62 67 73 78
53 54 54 55 56 56 55 56 58 57 56 55 54 53 53 52 53 54 55 56 57 58 59 60 59 57 57 60 60 60 60 61 62 62 61 61 62 64 65 66 67 67 67 67 66 63 58 54 54 54 51 49 51 53 54 56 59 62 64 66 68 71 74 77 79 82 83 83 83 83 80 77 73 68 63 59 56 56 56 57 59 62 67 72 77
54 56 57 57 58 58 57 58 58 59 57 55 54 54 53 53 54 55 56 57 58 59 61 61 58 55 58 61 60 59 61 61 61 61 61 62 64 66 66 67 67 65 63 63 62 59 55 53 55 55 52 50 51 54 56 59 63 67 70 72 74 76 78 80 82 84 84 83 82 80 78 75 72 67 63 61 59 58 59 61 62 65 68 73 78
55 57 58 59 59 60 60 59 60 60 58 56 56 54 54 55 55 55 57 59 60 61 62 60 56 56 61 62 60 60 62 62 61 61 61 63 66 68 67 67 66 63 62 62 60 57 56 58 60 58 54 53 56 59 63 65 67 70 72 74 76 79 81 82 83 83 82 80 79 78 76 73 70 67 65 63 61 60 61 62 63 66 69 73 77
56 57 58 60 61 62 62 61 61 61 60 58 57 56 56 56 55 56 59 61 62 62 62 59 57 60 62 61 61 62 61 60 61 62 63 65 68 68 67 65 64 62 61 59 58 58 59 61 62 58 56 59 63 67 70 72 74 76 78 79 80 81 82 81 81 80 79 77 75 74 73 71 69 67 66 64 63 61 60 61 62 64 67 71 76
59 59 59 60 62 63 64 63 62 61 60 59 58 57 56 53 53 58 62 63 64 63 62 61 61 62 61 61 63 62 58 59 63 64 64 65 65 64 62 61 61 61 60 60 62 65 65 63 61 61 64 68 72 73 75 76 77 77 78 78 77 77 76 76 76 75 74 73 72 71 72 72 70 68 66 65 63 61 59 59 60 62 65 69 74
61 61 60 61 62 63 65 64 63 61 61 60 59 57 54 51 55 61 64 65 65 63 63 64 64 63 62 63 62 56 54 60 65 65 64 62 59 58 57 59 61 63 64 65 69 72 70 66 66 70 73 75 76 76 76 75 74 73 72 71 70 70 70 70 71 72 72 72 71 71 73 73 71 68 66 64 62 60 58 58 58 60 63 66 71
62 62 62 61 61 62 64 65 65 63 62 61 60 58 55 55 59 63 65 66 65 65 66 67 65 65 65 64 60 53 54 62 65 64 62 58 56 57 59 62 65 68 68 69 73 77 74 71 73 78 79 78 76 75 73 71 70 68 66 66 66 66 67 68 69 71 74 75 73 72 73 75 72 66 63 62 61 58 57 57 58 58 60 63 67
64 64 63 62 62 62 63 65 65 64 63 62 62 60 60 60 63 64 65 66 66 67 68 68 67 67 66 64 61 56 56 61 63 63 61 58 58 61 62 64 68 70 72 74 78 80 76 73 77 81 80 78 76 73 70 67 66 65 64 65 66 67 68 69 70 72 76 77 76 73 73 75 70 62 59 60 59 56 56 57 57 57 57 59 62
66 65 65 64 64 63 63 63 64 65 64 64 63 62 62 63 64 65 66 67 67 68 69 68 67 66 64 62 61 60 61 63 64 66 65 64 62 61 60 64 70 74 77 80 81 79 76 76 80 82 81 78 74 70 67 65 64 64 66 67 69 70 70 71 73 74 77 78 76 73 72 72 67 59 56 58 57 55 55 56 56 54 54 55 57
68 67 67 67 66 65 64 63 64 64 65 65 65 64 64 65 66 66 68 68 69 70 70 69 67 66 63 62 64 66 66 67 69 68 68 68 65 62 64 71 76 79 80 80 79 78 78 80 81 82 80 77 71 67 65 64 65 66 67 69 71 72 73 74 75 77 78 78 76 71 68 67 63 57 55 56 55 54 54 54 53 51 51 52 53
70 70 69 69 68 67 66 65 64 65 65 66 66 65 66 67 67 68 69 70 71 71 71 70 68 65 63 64 69 70 68 70 72 70 69 70 69 70 74 77 79 80 79 79 79 79 81 82 82 81 78 74 69 66 66 66 67 68 69 71 73 73 74 75 76 77 77 77 75 69 62 60 59 54 53 54 54 52 53 53 50 48 48 50 50
72 72 71 70 69 68 67 67 66 66 66 67 67 67 67 68 69 69 70 71 71 71 71 70 66 63 64 68 71 71 71 71 72 72 74 75 75 76 79 79 79 80 80 80 81 81 82 83 82 79 74 70 68 68 68 69 70 71 71 73 75 75 75 75 76 75 74 73 72 66 57 56 57 53 50 51 51 50 52 52 48 46 47 47 47
73 73 73 72 70 69 69 69 68 67 67 68 69 69 69 69 70 71 71 71 72 72 71 68 65 64 67 70 71 73 73 72 73 77 77 76 78 80 81 81 80 81 82 83 83 83 83 83 81 76 72 69 69 70 71 73 73 73 74 75 76 76 75 73 72 71 69 70 69 62 54 54 56 53 48 47 47 49 51 50 47 45 45 45 45
74 74 73 72 72 71 70 70 70 69 69 69 70 71 72 72 72 72 72 72 72 73 71 68 66 67 70 72 74 75 74 73 78 79 74 73 82 86 83 82 83 83 84 84 84 83 83 81 78 74 72 72 73 73 75 76 76 77 77 77 78 77 74 71 69 66 66 67 65 58 52 53 54 53 47 42 44 49 50 47 45 43 43 43 42
75 73 72 71 72 72 71 71 71 71 70 71 72 73 74 74 73 73 73 72 72 73 72 70 70 72 73 75 76 76 75 79 85 85 79 81 87 87 84 84 85 84 85 85 84 83 82 79 75 73 72 74 75 76 78 79 80 80 80 80 79 77 73 69 67 64 63 64 61 54 50 51 52 51 45 38 41 48 49 45 43 43 42 41 40
Wind_Direction
28 26 22 20 18 15 15 18 12 7 16 22 19 22 25 30 40 46 46 45 45 46 46 46 47 46 45 44 43 42 39 32 15 337 299 282 275 273 270 266 261 258 257 257 259 260 260 260 258 256 252 249 259 273 278 279 282 283 269 240 240 253 252 245 238 228 223 218 216 216 217 219 221 223 223 223 222 206 189 175 155 157 161 159 147
27 23 20 19 16 12 10 8 2 351 346 347 351 353 5 22 41 48 48 48 46 46 46 46 48 47 47 45 44 42 39 37 34 26 9 337 301 283 274 269 266 264 262 262 262 261 261 261 259 257 252 247 247 257 261 262 262 261 260 252 233 224 225 237 243 238 234 228 224 223 223 224 224 227 228 227 226 221 211 204 203 194 182 179 173
26 22 19 18 16 11 5 4 2 358 352 348 351 352 359 19 43 51 50 50 48 47 45 45 46 45 45 44 44 42 41 38 36 33 28 19 3 334 302 282 271 265 264 264 265 264 262 261 259 255 250 247 239 238 243 247 251 250 249 252 246 229 210 216 239 245 245 241 236 231 228 229 229 229 229 230 228 225 223 217 213 213 212 205 200
25 21 17 17 15 11 6 5 4 1 357 353 354 355 1 22 49 54 51 51 48 46 44 43 43 43 42 41 40 39 39 39 37 35 32 28 22 13 356 330 299 278 267 262 261 262 262 260 258 255 250 248 242 238 237 239 245 247 245 247 251 248 233 216 223 235 246 251 247 241 236 231 231 231 231 232 232 230 227 225 223 220 225 228 224
22 20 16 13 11 10 10 9 9 9 7 4 3 2 7 28 55 55 48 46 42 39 38 38 39 39 39 38 36 34 33 32 32 33 32 31 28 24 16 4 346 318 291 273 263 258 259 258 256 254 251 249 246 241 238 239 248 252 249 248 250 253 254 245 230 224 232 247 250 248 245 239 235 233 233 234 235 234 232 229 228 227 228 233 236
20 19 15 11 7 4 7 11 10 15 17 16 15 12 17 36 56 51 41 37 33 31 30 31 31 32 33 32 32 31 29 27 25 25 24 25 27 27 24 16 6 351 329 302 281 266 258 256 255 253 250 250 250 246 241 239 246 254 251 249 250 250 251 251 248 238 230 238 249 250 248 246 243 239 237 236 236 236 234 232 230 230 230 232 237
16 17 14 10 7 2 1 4 8 15 19 23 21 18 25 41 50 41 31 28 27 25 24 25 25 25 26 25 25 25 24 23 22 20 17 17 17 20 23 21 14 3 350 332 309 288 270 259 254 252 250 249 250 249 247 240 239 247 248 244 247 252 249 245 249 250 245 242 250 254 253 250 246 243 243 240 239 239 237 235 232 231 231 231 233
11 14 12 7 7 5 1 357 358 2 7 15 14 11 17 25 26 16 9 12 17 18 19 19 19 18 18 18 18 18 19 18 18 18 15 13 11 10 12 15 16 10 358 347 331 312 292 273 260 253 250 248 249 249 250 245 237 240 247 246 242 247 248 245 248 251 251 247 247 252 254 257 252 243 245 246 242 241 239 237 235 233 232 230 230
7 8 8 4 3 5 5 358 352 348 346 351 350 346 352 359 356 348 343 346 357 6 11 11 12 11 11 11 11 11 13 13 14 15 15 13 11 7 6 8 11 11 4 355 345 329 311 294 276 262 253 248 247 248 249 248 241 236 244 248 244 244 247 247 250 252 254 253 250 250 250 253 255 248 247 250 247 242 239 238 237 235 235 233 231
2 3 2 -0 360 1 3 -0 355 348 337 335 334 331 336 344 346 341 334 333 338 349 360 4 3 3 3 3 3 3 5 7 7 9 12 12 11 10 7 5 7 10 9 5 356 345 328 313 297 281 266 254 247 245 247 249 245 238 242 248 248 248 249 250 249 250 254 257 256 254 250 246 248 249 249 248 246 242 239 239 238 237 236 236 234
357 358 356 354 355 356 357 357 355 351 342 334 329 327 331 338 343 343 337 336 338 340 348 355 356 355 356 356 356 356 357 360 1 2 5 8 9 10 9 7 7 10 12 13 7 359 349 335 320 304 291 273 255 245 243 248 248 241 240 247 249 250 253 255 254 252 252 253 256 258 257 252 248 248 248 246 243 241 238 237 238 237 236 236 236
354 354 351 349 351 353 353 354 352 348 342 335 329 325 327 331 335 340 341 342 346 343 341 346 349 349 350 350 349 350 351 353 355 356 357 0 3 6 8 7 8 10 15 19 17 10 6 3 356 341 327 318 289 255 242 242 247 247 243 245 248 248 250 253 256 257 256 253 252 255 258 257 255 253 252 249 246 243 240 237 236 236 236 235 236
352 351 347 346 348 350 350 351 351 348 343 335 327 321 322 326 329 334 337 339 342 341 339 340 343 343 344 344 343 344 345 346 349 350 351 352 354 358 2 3 4 6 12 21 26 22 16 16 17 14 5 2 5 330 255 241 243 247 248 247 249 250 250 251 253 255 257 258 255 253 254 255 256 256 256 254 249 245 243 240 237 236 235 234 234
351 349 347 347 347 348 349 348 349 348 346 340 330 322 320 323 325 329 331 332 333 334 335 336 338 339 339 339 338 338 338 339 342 343 345 347 347 348 353 355 357 359 2 11 22 24 20 17 16 17 16 15 22 31 15 257 244 246 248 248 249 252 253 254 254 253 253 256 257 256 254 254 254 255 256 256 253 248 244 243 242 238 237 236 234
349 350 349 349 349 349 349 347 346 345 344 342 337 330 324 321 322 324 325 326 326 328 330 332 334 336 336 336 336 334 333 332 334 336 337 340 343 342 343 346 347 350 352 355 4 12 14 16 14 11 13 15 17 26 33 28 288 256 253 253 252 252 253 253 255 257 256 253 252 252 252 253 254 254 254 255 254 251 247 246 246 243 239 238 236
351 350 348 348 348 348 346 344 342 340 339 339 338 335 330 324 321 320 321 321 322 323 325 328 330 332 332 333 334 332 330 328 327 329 330 332 336 338 339 339 339 340 342 344 348 355 1 6 8 7 7 10 12 12 15 18 11 334 286 274 269 263 260 257 255 257 259 258 255 251 249 249 252 253 253 253 252 252 249 247 247 246 242 239 238
349 347 345 345 345 344 343 341 338 337 337 336 335 334 332 328 322 319 318 318 318 319 321 323 325 327 329 330 331 330 328 325 323 323 324 324 327 331 334 334 334 334 334 337 340 342 348 353 356 357 358 -0 2 3 2 358 346 331 312 299 292 286 280 271 264 261 260 260 259 257 254 250 250 251 252 253 252 251 250 248 247 247 244 240 239
345 344 343 343 343 342 340 339 337 336 335 334 333 331 329 327 324 320 317 315 315 316 318 320 321 324 326 327 328 328 326 324 322 320 319 319 320 324 328 329 330 331 329 330 334 336 338 342 345 346 347 349 349 350 350 348 341 329 316 305 293 286 285 282 275 270 267 263 260 259 258 255 251 249 249 251 252 252 250 248 246 246 246 243 240
343 342 342 341 341 340 339 338 337 335 334 332 330 329 327 325 323 320 317 315 313 313 316 318 320 322 324 325 326 326 324 322 320 319 316 315 316 319 323 325 326 327 325 324 327 330 332 333 336 337 338 339 338 338 338 339 337 333 327 321 312 300 292 287 280 276 273 268 264 260 258 257 255 251 248 247 248 249 249 248 246 246 246 245 243
342 340 339 339 338 337 337 336 335 334 332 330 328 327 325 324 322 319 317 314 311 310 313 317 319 321 322 324 324 324 323 320 319 317 315 312 312 315 319 322 323 324 322 320 320 321 324 327 328 329 330 330 330 328 327 328 328 328 327 324 319 313 306 299 290 285 281 272 263 259 258 257 257 255 251 247 244 244 245 246 246 245 245 245 244
339 338 337 336 336 335 335 335 334 332 331 329 327 326 324 322 321 318 315 313 310 309 311 314 317 319 320 321 323 323 323 320 318 316 314 311 309 311 315 318 319 321 321 319 316 312 313 317 320 322 323 324 324 322 320 319 319 321 321 319 315 311 306 301 295 291 289 280 263 255 254 254 256 256 255 251 247 244 242 243 244 245 244 244 244
335 335 335 334 334 334 334 334 333 332 330 329 327 325 323 322 320 318 315 312 310 311 313 316 317 318 319 319 320 322 322 321 318 316 314 310 307 306 309 313 316 317 319 318 312 305 303 304 308 313 318 320 320 318 317 316 315 314 314 312 309 305 300 296 293 289 286 281 267 254 250 249 251 254 255 254 251 247 244 242 241 243 244 244 243
332 331 331 331 332 332 333 333 333 331 330 329 327 324 322 321 320 318 315 312 311 312 316 319 320 320 319 318 318 319 321 321 319 317 315 311 308 305 305 309 313 315 316 315 310 304 299 298 303 309 313 317 317 316 315 314 313 311 309 307 304 301 296 292 289 287 283 277 267 255 248 245 245 248 251 254 253 251 248 245 242 240 241 243 243
329 328 328 329 330 331 332 332 332 331 330 328 326 323 321 320 319 318 314 311 311 313 316 319 321 322 320 318 316 317 319 320 319 317 315 312 309 306 305 307 310 312 312 310 306 305 303 302 305 308 311 314 315 314 314 313 311 309 306 303 301 296 293 290 287 285 282 276 267 258 251 245 242 243 245 248 251 252 250 248 245 241 238 239 241
326 326 326 328 329 330 331 332 331 330 328 326 324 322 320 320 318 318 316 313 313 314 317 319 321 321 319 317 315 316 317 318 318 316 314 312 309 305 304 305 306 308 308 306 303 303 304 305 306 308 310 313 314 313 312 311 309 307 303 300 298 294 290 289 288 285 279 274 269 263 257 249 244 241 241 242 245 249 250 249 248 245 241 238 236
324 325 325 326 327 328 330 331 331 329 327 325 323 321 320 319 317 317 317 316 314 315 317 320 320 319 317 316 315 315 317 317 317 315 313 311 308 304 303 303 304 305 304 302 300 299 303 305 306 307 310 311 311 311 311 309 307 304 300 296 294 292 289 288 288 286 280 275 272 268 263 257 251 247 243 241 240 243 246 248 247 246 244 241 237
322 323 324 325 326 327 329 330 330 328 326 325 323 320 319 319 317 316 317 315 314 315 318 319 319 318 317 316 315 316 316 316 315 314 313 311 308 305 304 303 303 303 301 298 295 297 301 304 305 307 308 309 309 309 310 309 306 302 297 292 289 287 286 285 284 284 283 281 279 276 270 264 258 254 251 248 244 242 241 243 245 245 244 243 241
320 321 322 323 325 326 328 328 329 328 326 325 323 321 318 319 319 318 317 316 316 317 318 319 318 318 317 317 317 316 315 314 314 314 313 311 309 306 304 302 301 299 298 295 293 295 298 300 303 305 306 307 308 309 310 308 305 300 294 288 284 283 283 282 281 282 283 284 284 283 279 272 266 260 257 255 253 249 244 241 240 242 242 242 241
319 319 320 322 324 325 326 327 327 326 324 324 323 321 319 319 319 319 317 317 317 317 318 318 317 317 318 318 317 316 315 315 315 314 311 309 307 304 302 300 299 298 296 294 292 293 294 297 300 302 304 306 307 308 308 306 301 294 289 285 283 283 282 280 279 281 282 283 284 284 283 281 277 272 266 263 260 257 252 247 241 239 239 239 239
317 318 319 321 322 323 324 325 326 324 323 323 323 321 318 317 317 317 316 316 316 317 318 318 317 315 316 317 317 317 316 315 313 310 306 303 302 300 298 297 297 296 294 292 291 292 293 295 298 300 303 305 306 307 305 302 296 289 285 284 284 284 280 276 276 280 282 283 284 284 283 282 280 278 275 271 267 263 258 253 247 241 237 236 237
316 317 318 319 320 322 323 323 324 324 323 323 323 321 318 316 316 315 315 315 316 317 318 317 316 314 315 317 318 317 315 311 308 304 301 299 298 297 296 295 295 293 292 292 292 293 294 296 298 299 302 305 306 305 302 297 292 287 284 282 281 278 272 270 274 278 281 284 286 286 285 283 281 280 279 277 273 267 261 255 251 246 240 235 234
315 316 317 318 318 320 321 322 323 323 323 323 322 321 319 316 315 315 315 316 316 317 317 317 316 314 315 317 317 314 311 307 304 301 299 297 296 295 294 293 293 293 293 293 294 294 295 297 299 301 303 305 305 303 299 293 290 288 287 285 280 274 271 273 277 280 282 286 289 291 291 290 288 287 286 284 278 271 264 257 252 248 244 239 234
314 315 316 316 317 319 320 321 322 323 322 322 322 320 319 317 316 316 316 316 317 317 318 318 317 315 315 317 316 313 310 307 304 301 299 298 296 295 294 294 294 294 294 294 294 295 296 298 301 303 304 305 303 300 297 294 294 293 291 286 281 278 276 278 281 283 287 291 293 294 295 295 293 291 289 286 281 273 264 258 253 249 246 243 237
313 313 314 315 316 317 319 320 321 322 322 321 321 320 319 318 317 316 316 316 317 318 319 319 318 315 314 316 316 314 312 309 306 304 302 301 300 299 298 297 296 295 295 295 296 298 299 301 303 304 305 304 301 300 299 299 298 297 294 289 285 282 280 281 284 287 290 293 295 295 296 296 293 291 288 285 279 272 264 257 252 248 245 243 241
312 312 313 313 314 316 318 319 320 321 321 321 320 320 319 318 317 315 315 316 317 318 319 320 318 315 314 315 316 315 313 311 308 306 305 304 303 302 301 299 298 297 297 298 300 302 304 305 305 306 306 304 301 300 301 301 300 298 296 293 289 285 283 283 285 287 290 293 294 295 297 296 293 290 287 283 277 270 264 258 252 247 243 241 240
310 310 312 312 314 315 317 318 320 320 321 320 320 319 318 317 316 315 315 316 317 318 319 319 317 314 313 315 316 314 312 310 308 306 305 305 304 304 303 302 301 301 302 302 304 305 307 307 307 307 307 305 302 301 302 301 300 299 297 294 291 289 288 287 287 288 290 292 294 295 296 294 292 290 287 282 276 271 266 261 254 249 244 241 238
309 310 311 312 313 314 316 318 319 320 320 319 319 318 317 316 316 315 316 316 318 318 318 318 315 313 314 316 315 312 310 308 308 307 306 305 306 307 307 305 305 304 305 306 306 307 307 307 307 307 306 304 302 301 301 299 298 297 296 294 293 292 291 290 290 291 292 293 294 294 294 292 291 289 286 282 278 274 270 265 258 252 246 242 239
309 310 311 312 313 314 316 318 318 319 319 318 318 317 316 316 315 315 316 317 318 318 318 318 315 313 315 315 313 311 310 309 309 309 308 308 309 310 309 307 306 306 307 307 307 306 305 305 306 306 304 301 298 297 296 296 296 296 295 294 293 292 291 291 291 292 293 293 293 292 292 291 290 288 286 284 281 277 272 267 261 254 248 244 241
309 309 310 311 312 313 315 317 318 317 317 317 317 317 316 315 314 314 316 317 317 317 318 317 314 312 315 315 313 312 311 310 311 310 309 309 310 310 309 307 306 306 307 308 307 306 305 306 306 306 303 298 295 295 295 296 296 295 294 293 292 291 291 291 291 292 292 292 292 291 291 290 289 288 288 286 284 279 273 267 261 255 249 244 242
308 309 310 311 312 313 315 316 317 317 317 317 317 317 317 315 313 314 316 316 316 317 318 317 314 313 315 314 314 314 311 309 311 311 310 311 311 310 308 306 305 305 307 308 308 308 308 308 307 305 303 300 297 298 298 297 296 295 293 292 291 291 291 291 292 291 291 291 291 291 290 290 290 290 290 288 286 281 274 267 261 255 250 245 243
307 308 310 310 311 312 313 314 315 316 316 316 316 317 315 312 312 314 314 315 316 317 317 316 315 315 315 315 316 315 311 309 311 312 312 313 311 309 306 304 303 304 305 306 309 311 311 309 307 305 303 301 299 298 297 295 294 293 293 292 292 291 291 292 292 291 291 291 291 291 291 291 292 292 291 290 287 281 274 268 261 255 250 246 243
306 308 308 309 310 311 312 313 314 315 314 314 314 315 313 309 310 313 314 315 316 316 316 317 316 316 316 316 317 313 307 307 310 312 315 314 310 308 305 303 302 302 303 305 308 311 312 309 307 307 305 303 301 299 298 297 295 295 294 294 294 294 294 293 293 293 292 292 292 292 293 293 292 292 292 290 286 281 275 268 262 256 251 247 244
305 305 306 307 309 310 312 312 313 313 313 312 313 314 312 310 311 313 314 315 315 316 317 317 316 316 316 315 314 309 303 306 309 312 315 313 308 304 302 299 299 300 301 304 306 309 310 308 308 309 308 306 304 303 302 300 299 299 298 297 296 296 296 295 295 294 294 293 294 294 294 293 292 292 292 289 284 279 275 269 262 256 252 248 244
302 303 305 306 308 310 311 311 312 312 311 311 312 312 312 312 312 313 314 315 315 316 316 317 317 317 315 314 313 310 307 309 312 312 314 312 306 302 299 297 297 299 301 302 304 306 308 307 309 310 310 308 307 305 303 302 301 301 300 299 298 297 297 296 296 295 294 294 294 295 294 293 292 293 291 286 282 278 273 268 262 257 252 249 245
302 303 305 307 308 309 310 310 310 310 310 310 311 311 312 312 313 314 315 315 316 316 317 317 318 317 316 313 313 313 311 312 313 314 314 313 309 304 300 298 299 301 302 302 304 305 306 307 309 311 310 308 307 305 303 302 302 301 301 300 300 299 299 298 297 296 295 294 294 294 293 292 292 292 289 284 281 277 271 266 262 258 253 249 245
302 304 305 307 308 309 309 309 308 309 309 309 310 311 312 313 314 315 315 315 316 317 318 318 317 317 316 313 314 315 314 312 314 314 314 313 310 305 302 302 304 305 305 305 306 307 307 308 310 311 310 308 306 304 303 302 302 302 302 302 301 301 301 300 298 297 296 295 294 293 293 292 292 290 288 284 279 275 270 266 261 258 254 249 245
303 304 305 307 308 308 308 308 308 309 309 309 310 311 312 313 314 315 316 316 316 317 318 318 317 317 315 314 315 315 313 312 312 313 313 313 311 308 307 307 308 308 308 308 309 309 309 310 310 310 309 306 305 303 303 302 303 303 303 303 302 301 301 300 299 298 297 295 294 293 293 292 290 288 286 282 277 273 270 266 262 257 254 249 245
303 304 305 306 307 307 308 308 308 309 309 309 310 311 312 314 315 315 316 316 316 317 317 317 316 315 313 313 314 314 312 311 311 312 313 313 312 310 309 310 310 310 309 309 309 309 309 309 309 309 307 305 304 304 303 304 304 304 304 304 303 302 302 302 301 300 298 296 294 294 294 292 289 287 284 279 276 273 269 266 262 258 254 249 245
302 303 305 306 306 307 308 308 309 309 310 310 311 312 313 314 315 315 315 316 316 316 315 314 312 310 310 312 313 313 312 311 311 312 312 311 311 311 311 311 311 310 309 308 308 309 309 309 309 308 306 305 305 305 305 305 306 305 305 305 304 303 303 303 302 300 298 296 293 294 295 292 289 286 282 278 276 272 268 265 262 257 253 250 245
302 303 305 306 306 308 308 309 310 310 311 311 311 312 313 314 314 314 315 315 315 314 314 312 308 307 308 311 312 312 311 310 311 313 310 309 312 313 312 311 310 309 308 308 308 309 309 309 308 307 307 307 307 307 307 307 307 306 306 306 305 305 305 304 302 300 298 295 293 294 294 291 287 284 282 279 275 271 267 264 261 256 253 249 245
301 302 304 305 306 308 308 309 310 311 311 311 311 312 313 313 313 314 314 314 313 313 312 309 307 306 308 310 310 310 310 311 313 313 311 310 312 312 311 310 310 309 308 308 308 309 309 308 307 307 307 307 308 308 308 308 308 307 307 307 307 307 307 305 303 300 298 295 293 294 293 289 285 283 281 278 273 269 266 262 259 256 252 248 244
Height
10972 10970 10969 10968 10967 10966 10965 10965 10964 10964 10962 10961 10960 10959 10958 10958 10957 10954 10951 10950 10948 10946 10944 10941 10939 10937 10935 10934 10933 10933 10932 10932 10932 10932 10932 10933 10933 10934 10934 10934 10935 10934 10934 10934 10934 10935 10936 10936 10937 10938 10939 10941 10941 10941 10939 10938 10938 10938 10937 10937 10937 10937 10937 10938 10938 10938 10937 10937 10937 10938 10938 10938 10939 10940 10940 10940 10940 10940 10940 10940 10939 10939 10938 10938 10937
10973 10972 10970 10968 10967 10966 10966 10965 10965 10964 10962 10961 10960 10959 10959 10959 10957 10955 10953 10952 10951 10949 10947 10945 10943 10941 10939 10938 10936 10935 10934 10933 10932 10932 10932 10932 10932 10932 10933 10933 10934 10933 10933 10933 10933 10934 10935 10935 10936 10937 10938 10940 10941 10940 10937 10936 10936 10935 10935 10935 10936 10936 10936 10936 10936 10937 10937 10937 10937 10937 10937 10938 10938 10939 10939 10940 10940 10940 10940 10939 10939 10939 10938 10938 10938
10974 10973 10971 10970 10968 10967 10966 10966 10964 10964 10963 10961 10961 10960 10960 10959 10958 10956 10955 10954 10953 10951 10949 10948 10946 10944 10942 10941 10940 10938 10937 10936 10934 10933 10932 10932 10931 10931 10931 10931 10932 10932 10931 10931 10932 10932 10933 10934 10935 10935 10937 10938 10938 10936 10933 10932 10932 10932 10933 10934 10934 10935 10935 10935 10935 10936 10936 10936 10936 10936 10936 10937 10937 10937 10938 10938 10939 10939 10939 10939 10939 10939 10938 10938 10938
10975 10973 10973 10971 10970 10969 10968 10967 10965 10964 10963 10962 10961 10961 10960 10959 10958 10957 10956 10955 10954 10952 10951 10949 10948 10946 10945 10944 10943 10941 10940 10939 10937 10936 10934 10933 10932 10931 10930 10929 10929 10929 10929 10929 10929 10930 10931 10932 10933 10934 10935 10935 10935 10932 10929 10929 10929 10929 10931 10933 10934 10934 10934 10934 10934 10934 10935 10935 10935 10935 10935 10935 10936 10936 10937 10937 10937 10938 10938 10938 10938 10938 10938 10938 10938
10975 10974 10973 10973 10972 10970 10969 10968 10967 10965 10963 10962 10962 10961 10960 10959 10958 10958 10957 10956 10955 10953 10952 10951 10949 10947 10946 10945 10945 10944 10943 10941 10940 10938 10937 10935 10934 10932 10930 10929 10928 10927 10927 10926 10927 10927 10928 10929 10930 10931 10932 10932 10931 10929 10927 10927 10928 10930 10932 10933 10933 10933 10933 10933 10933 10933 10933 10933 10933 10933 10934 10934 10935 10935 10936 10936 10936 10937 10937 10937 10937 10937 10938 10938 10938
10977 10975 10974 10973 10972 10971 10969 10968 10967 10966 10964 10962 10962 10961 10960 10960 10959 10958 10957 10956 10955 10954 10953 10952 10950 10949 10947 10946 10946 10945 10944 10943 10941 10940 10938 10937 10935 10933 10931 10929 10928 10926 10925 10924 10924 10924 10925 10926 10927 10928 10928 10928 10926 10925 10925 10928 10930 10932 10932 10932 10932 10932 10931 10931 10931 10931 10931 10931 10932 10932 10932 10933 10933 10934 10934 10935 10935 10935 10936 10936 10936 10936 10937 10937 10937
10978 10976 10975 10974 10973 10971 10970 10969 10968 10966 10964 10963 10962 10962 10961 10961 10960 10959 10958 10957 10956 10955 10953 10952 10951 10949 10948 10947 10946 10946 10945 10943 10942 10941 10939 10937 10936 10934 10932 10930 10928 10926 10925 10924 10923 10922 10922 10923 10923 10923 10924 10923 10922 10922 10924 10927 10929 10930 10930 10930 10930 10930 10929 10929 10929 10929 10929 10930 10930 10931 10931 10931 10932 10932 10933 10934 10934 10934 10935 10935 10935 10935 10935 10936 10936
10978 10976 10975 10975 10973 10972 10970 10969 10968 10967 10965 10964 10963 10964 10963 10962 10961 10960 10958 10957 10956 10955 10954 10952 10951 10950 10949 10948 10947 10946 10945 10944 10942 10941 10939 10937 10935 10934 10932 10930 10928 10926 10925 10923 10922 10921 10920 10920 10919 10919 10919 10919 10918 10920 10922 10924 10925 10927 10928 10928 10928 10928 10927 10928 10928 10928 10928 10928 10929 10929 10930 10930 10930 10931 10931 10932 10933 10933 10933 10934 10934 10934 10934 10934 10934
10978 10977 10976 10975 10974 10972 10971 10969 10968 10967 10966 10965 10964 10965 10964 10963 10962 10960 10958 10957 10956 10956 10954 10953 10951 10950 10949 10948 10947 10946 10945 10944 10942 10941 10939 10937 10935 10933 10931 10929 10928 10926 10924 10923 10921 10920 10919 10917 10916 10915 10915 10915 10916 10918 10919 10920 10922 10925 10926 10926 10926 10926 10926 10926 10926 10926 10926 10927 10927 10927 10927 10928 10929 10929 10930 10930 10931 10931 10932 10932 10932 10933 10933 10933 10933
10979 10977 10976 10975 10974 10972 10971 10970 10969 10968 10967 10965 10965 10965 10964 10963 10962 10960 10958 10957 10956 10955 10954 10953 10952 10951 10949 10948 10947 10946 10944 10943 10942 10940 10939 10937 10935 10933 10930 10928 10927 10925 10923 10922 10921 10919 10918 10916 10914 10913 10911 10911 10912 10914 10915 10916 10919 10923 10923 10924 10924 10924 10924 10924 10925 10925 10925 10925 10926 10925 10925 10926 10927 10928 10928 10928 10929 10929 10930 10930 10931 10931 10931 10932 10932
10978 10977 10976 10975 10974 10972 10971 10970 10969 10968 10967 10965 10965 10964 10963 10962 10961 10959 10957 10956 10955 10954 10954 10953 10952 10950 10949 10948 10947 10945 10944 10943 10941 10940 10938 10937 10935 10932 10930 10928 10926 10924 10923 10921 10920 10919 10917 10915 10913 10911 10909 10908 10908 10910 10912 10913 10916 10919 10921 10921 10922 10922 10923 10922 10923 10923 10923 10924 10924 10924 10924 10924 10924 10925 10926 10926 10926 10927 10927 10928 10929 10929 10930 10930 10930
10978 10977 10976 10975 10974 10972 10971 10970 10969 10967 10966 10965 10964 10963 10962 10961 10960 10958 10957 10955 10954 10953 10952 10952 10951 10950 10948 10947 10946 10945 10943 10942 10941 10939 10938 10936 10935 10933 10930 10928 10926 10924 10922 10921 10919 10918 10916 10914 10912 10910 10908 10906 10905 10905 10907 10909 10912 10915 10917 10918 10919 10920 10921 10921 10921 10921 10921 10922 10922 10922 10922 10922 10922 10923 10923 10924 10924 10924 10925 10926 10926 10927 10928 10928 10929
10977 10977 10976 10975 10973 10972 10971 10969 10968 10967 10966 10965 10964 10962 10961 10960 10958 10957 10955 10954 10953 10952 10951 10950 10949 10948 10947 10946 10945 10943 10942 10941 10940 10938 10937 10936 10934 10932 10930 10928 10926 10924 10922 10920 10919 10918 10916 10914 10912 10910 10908 10905 10903 10903 10904 10906 10909 10912 10914 10915 10916 10917 10918 10918 10919 10919 10919 10919 10919 10919 10919 10920 10920 10920 10921 10921 10922 10922 10923 10923 10924 10924 10925 10926 10927
10977 10976 10975 10974 10972 10971 10970 10969 10967 10966 10965 10964 10963 10961 10960 10958 10957 10955 10954 10953 10951 10950 10949 10949 10948 10946 10945 10944 10943 10942 10941 10939 10938 10937 10936 10935 10933 10931 10929 10927 10925 10923 10921 10920 10918 10917 10915 10913 10911 10909 10907 10906 10904 10903 10902 10904 10906 10909 10910 10912 10913 10913 10914 10914 10915 10916 10916 10916 10916 10916 10917 10917 10917 10917 10918 10918 10919 10920 10920 10920 10921 10922 10923 10924 10925
10976 10975 10974 10973 10971 10970 10969 10968 10967 10965 10964 10963 10962 10960 10959 10957 10955 10954 10953 10951 10950 10949 10948 10947 10946 10945 10943 10942 10941 10940 10939 10937 10936 10935 10934 10933 10932 10930 10928 10926 10924 10922 10920 10918 10917 10915 10914 10912 10910 10908 10907 10906 10904 10904 10903 10903 10905 10906 10907 10909 10910 10910 10910 10910 10910 10910 10911 10912 10912 10913 10913 10913 10913 10914 10915 10915 10916 10917 10917 10917 10918 10919 10920 10921 10921
10975 10973 10972 10972 10970 10969 10968 10967 10966 10964 10963 10962 10960 10958 10957 10956 10954 10953 10952 10950 10949 10948 10947 10945 10944 10943 10941 10940 10939 10938 10936 10935 10934 10933 10932 10930 10929 10928 10926 10924 10922 10920 10918 10916 10915 10913 10911 10910 10909 10907 10906 10905 10904 10904 10904 10904 10904 10905 10906 10906 10907 10907 10907 10907 10906 10905 10905 10905 10906 10907 10908 10909 10910 10910 10910 10911 10912 10913 10913 10914 10915 10915 10916 10917 10918
10973 10972 10971 10970 10969 10968 10967 10966 10965 10963 10962 10960 10958 10957 10955 10954 10953 10951 10950 10949 10947 10946 10945 10944 10942 10941 10939 10938 10936 10935 10934 10933 10931 10930 10929 10928 10926 10926 10924 10922 10920 10918 10916 10914 10913 10911 10909 10908 10906 10905 10904 10903 10903 10903 10903 10904 10904 10905 10905 10905 10905 10905 10904 10903 10903 10902 10900 10900 10900 10901 10902 10904 10905 10906 10907 10907 10908 10908 10909 10910 10911 10912 10912 10913 10914
10973 10972 10970 10969 10968 10967 10966 10965 10963 10962 10960 10958 10957 10955 10954 10952 10951 10949 10948 10947 10945 10944 10943 10942 10940 10938 10937 10935 10934 10932 10931 10930 10929 10927 10925 10924 10923 10923 10922 10920 10918 10916 10914 10912 10910 10909 10907 10905 10904 10903 10902 10901 10900 10900 10900 10901 10902 10903 10903 10903 10902 10902 10901 10900 10899 10898 10897 10896 10895 10895 10896 10897 10899 10901 10902 10903 10903 10904 10905 10906 10907 10908 10909 10909 10910
10972 10971 10969 10968 10967 10966 10964 10963 10961 10960 10958 10957 10955 10954 10952 10951 10949 10948 10946 10945 10943 10941 10940 10939 10937 10936 10934 10932 10931 10930 10928 10926 10925 10925 10923 10921 10919 10918 10918 10917 10915 10914 10912 10909 10908 10906 10904 10902 10901 10900 10898 10898 10897 10896 10896 10896 10896 10897 10898 10898 10897 10896 10895 10894 10894 10893 10892 10891 10890 10890 10890 10890 10892 10894 10896 10898 10899 10899 10900 10901 10902 10903 10904 10905 10907
10971 10969 10968 10967 10965 10964 10963 10961 10960 10958 10956 10955 10953 10952 10950 10948 10947 10945 10944 10942 10941 10939 10938 10936 10934 10933 10931 10929 10928 10927 10925 10923 10922 10921 10919 10918 10916 10914 10913 10913 10912 10910 10909 10907 10905 10903 10901 10899 10897 10896 10895 10894 10893 10893 10892 10892 10891 10891 10891 10891 10890 10889 10888 10887 10886 10886 10885 10885 10884 10884 10884 10884 10885 10887 10889 10892 10893 10895 10895 10896 10897 10898 10899 10900 10902
10969 10968 10967 10965 10964 10962 10961 10959 10958 10956 10954 10952 10951 10949 10947 10945 10944 10942 10941 10939 10938 10936 10935 10933 10931 10930 10928 10926 10925 10923 10922 10920 10918 10917 10915 10914 10912 10910 10909 10908 10906 10905 10905 10904 10902 10900 10897 10895 10893 10892 10891 10890 10890 10889 10888 10887 10887 10886 10885 10885 10884 10883 10881 10880 10879 10878 10877 10877 10876 10877 10878 10878 10878 10879 10881 10883 10886 10888 10890 10891 10892 10893 10894 10895 10896
10968 10967 10965 10964 10962 10961 10959 10957 10956 10954 10952 10950 10948 10946 10944 10942 10940 10939 10937 10936 10934 10933 10931 10930 10928 10926 10925 10923 10921 10920 10919 10917 10915 10913 10912 10910 10909 10907 10905 10903 10901 10899 10899 10899 10898 10896 10893 10890 10888 10887 10886 10886 10885 10884 10883 10882 10881 10881 10880 10879 10878 10876 10875 10873 10872 10871 10870 10869 10869 10868 10869 10871 10872 10872 10873 10875 10877 10880 10882 10884 10886 10887 10888 10889 10890
10966 10965 10964 10962 10960 10958 10957 10955 10953 10951 10949 10947 10945 10943 10941 10939 10937 10935 10933 10932 10930 10929 10927 10926 10924 10923 10921 10919 10917 10916 10915 10913 10911 10909 10907 10906 10904 10903 10901 10899 10897 10894 10892 10892 10892 10891 10889 10886 10884 10882 10881 10881 10880 10878 10877 10876 10875 10874 10873 10872 10870 10869 10867 10866 10864 10863 10863 10862 10861 10861 10861 10862 10864 10865 10866 10867 10868 10871 10873 10876 10879 10881 10882 10883 10884
10964 10963 10961 10960 10958 10956 10954 10953 10951 10949 10946 10944 10941 10939 10937 10936 10934 10932 10930 10928 10926 10925 10923 10922 10920 10918 10917 10915 10913 10911 10910 10908 10906 10904 10902 10900 10899 10897 10896 10894 10892 10890 10887 10885 10885 10884 10883 10881 10880 10878 10877 10876 10874 10872 10870 10869 10867 10867 10865 10864 10863 10861 10860 10859 10857 10856 10855 10855 10854 10853 10853 10853 10855 10856 10858 10859 10860 10862 10864 10867 10869 10872 10875 10877 10878
10962 10960 10958 10957 10956 10954 10952 10950 10948 10946 10944 10942 10939 10936 10934 10932 10930 10928 10926 10925 10923 10922 10920 10918 10916 10914 10913 10911 10909 10908 10906 10904 10902 10899 10897 10895 10893 10891 10889 10887 10886 10886 10883 10880 10879 10879 10877 10875 10874 10872 10871 10870 10868 10866 10864 10862 10860 10859 10858 10856 10854 10853 10852 10851 10850 10849 10849 10848 10848 10847 10846 10846 10846 10847 10849 10851 10852 10853 10855 10857 10860 10862 10866 10868 10871
10959 10957 10956 10954 10953 10951 10949 10948 10945 10943 10941 10939 10936 10934 10931 10929 10927 10925 10923 10921 10920 10919 10917 10915 10913 10911 10909 10907 10905 10904 10902 10899 10897 10895 10892 10889 10887 10886 10884 10882 10880 10879 10878 10876 10875 10874 10872 10869 10866 10864 10863 10863 10862 10859 10857 10856 10853 10851 10849 10848 10846 10845 10844 10843 10843 10842 10842 10842 10842 10841 10840 10840 10839 10839 10840 10841 10843 10844 10846 10847 10850 10852 10855 10858 10862
10956 10955 10953 10951 10949 10948 10946 10944 10942 10939 10937 10935 10933 10930 10928 10926 10924 10921 10920 10918 10916 10914 10912 10911 10909 10906 10905 10903 10900 10899 10897 10894 10892 10890 10887 10885 10883 10881 10879 10877 10875 10873 10872 10870 10870 10870 10867 10863 10860 10857 10856 10855 10853 10852 10850 10847 10845 10844 10842 10840 10839 10838 10837 10836 10835 10834 10834 10835 10835 10835 10834 10834 10833 10833 10833 10833 10834 10835 10836 10837 10839 10842 10845 10847 10851
10953 10952 10950 10948 10946 10944 10942 10940 10938 10936 10933 10931 10929 10926 10924 10922 10920 10918 10916 10914 10911 10909 10907 10905 10903 10901 10899 10897 10895 10893 10891 10889 10886 10883 10881 10879 10877 10875 10873 10871 10869 10867 10866 10864 10864 10865 10863 10859 10855 10852 10851 10849 10846 10843 10842 10840 10837 10835 10834 10833 10831 10830 10830 10828 10828 10827 10826 10826 10826 10826 10826 10827 10827 10827 10826 10826 10826 10826 10826 10827 10828 10831 10834 10837 10840
10950 10948 10947 10946 10943 10941 10938 10936 10935 10933 10930 10928 10925 10922 10920 10918 10916 10914 10911 10909 10907 10905 10902 10900 10897 10895 10894 10892 10889 10887 10884 10882 10879 10876 10873 10872 10870 10869 10868 10866 10864 10862 10860 10857 10856 10857 10857 10854 10850 10848 10846 10844 10840 10836 10834 10833 10831 10828 10826 10825 10824 10823 10822 10820 10819 10818 10818 10818 10817 10817 10817 10817 10818 10818 10818 10818 10818 10817 10816 10816 10817 10819 10822 10826 10829
10947 10945 10944 10943 10941 10938 10935 10933 10931 10929 10926 10924 10922 10919 10916 10914 10912 10910 10907 10905 10903 10901 10898 10896 10893 10890 10888 10886 10883 10880 10877 10874 10871 10869 10867 10866 10865 10863 10862 10860 10858 10856 10854 10851 10848 10849 10850 10847 10844 10842 10840 10837 10834 10830 10827 10825 10824 10823 10821 10819 10817 10816 10814 10813 10811 10810 10808 10808 10808 10808 10808 10808 10808 10808 10809 10809 10808 10807 10806 10806 10806 10807 10810 10813 10817
10943 10942 10940 10939 10937 10935 10932 10929 10927 10925 10922 10920 10918 10915 10912 10909 10907 10905 10903 10901 10898 10896 10893 10891 10888 10885 10883 10880 10876 10872 10869 10868 10866 10864 10862 10861 10859 10858 10856 10855 10853 10851 10849 10846 10841 10840 10842 10840 10835 10833 10832 10829 10826 10823 10820 10817 10816 10815 10814 10813 10811 10810 10809 10807 10805 10803 10801 10800 10799 10799 10799 10799 10799 10798 10797 10797 10796 10795 10795 10794 10795 10795 10797 10800 10804
10939 10938 10937 10934 10933 10931 10929 10926 10923 10921 10918 10915 10913 10911 10908 10905 10903 10900 10898 10895 10893 10891 10888 10885 10882 10879 10876 10872 10869 10866 10864 10863 10862 10860 10858 10856 10855 10853 10851 10850 10848 10846 10843 10840 10835 10830 10831 10831 10827 10823 10821 10819 10816 10814 10812 10810 10808 10808 10806 10805 10804 10803 10801 10800 10798 10796 10794 10793 10791 10790 10788 10787 10786 10785 10784 10783 10782 10782 10782 10782 10782 10784 10785 10787 10791
10936 10934 10933 10931 10928 10927 10925 10922 10919 10916 10914 10911 10908 10906 10904 10901 10898 10895 10893 10890 10888 10885 10882 10879 10875 10872 10870 10866 10864 10861 10860 10858 10857 10855 10853 10851 10849 10847 10845 10843 10841 10839 10836 10832 10828 10823 10820 10821 10819 10814 10810 10808 10805 10804 10803 10802 10801 10800 10799 10797 10795 10794 10792 10790 10788 10786 10784 10782 10780 10779 10777 10775 10773 10772 10770 10769 10768 10768 10768 10768 10769 10771 10773 10775 10778
10932 10930 10929 10927 10925 10923 10920 10918 10915 10912 10910 10907 10904 10901 10899 10897 10893 10890 10887 10884 10882 10879 10876 10873 10869 10866 10864 10862 10859 10856 10854 10852 10850 10848 10846 10844 10842 10840 10838 10835 10833 10831 10828 10824 10820 10815 10810 10809 10808 10806 10802 10799 10796 10794 10794 10794 10793 10791 10790 10789 10787 10785 10782 10779 10777 10774 10771 10769 10767 10765 10764 10763 10761 10760 10758 10757 10755 10754 10754 10754 10755 10756 10759 10761 10765
10928 10926 10925 10923 10921 10919 10917 10914 10910 10907 10905 10902 10899 10897 10895 10892 10889 10886 10883 10880 10877 10874 10870 10867 10863 10860 10858 10856 10853 10850 10847 10844 10842 10839 10837 10835 10833 10831 10829 10827 10824 10821 10818 10815 10811 10806 10801 10797 10796 10795 10793 10791 10788 10786 10786 10785 10784 10782 10781 10779 10777 10775 10772 10770 10767 10764 10761 10758 10756 10753 10751 10749 10748 10747 10746 10745 10743 10742 10742 10742 10742 10743 10744 10746 10750
10924 10923 10921 10918 10916 10915 10913 10909 10906 10903 10900 10897 10895 10892 10889 10887 10885 10881 10878 10875 10872 10869 10865 10861 10858 10855 10852 10850 10847 10843 10840 10837 10834 10832 10830 10827 10825 10823 10821 10818 10814 10811 10808 10806 10802 10799 10794 10789 10785 10784 10784 10782 10780 10778 10778 10776 10774 10772 10771 10770 10768 10766 10763 10761 10758 10754 10751 10748 10745 10742 10739 10737 10735 10734 10733 10732 10731 10730 10730 10730 10730 10730 10730 10731 10734
10920 10918 10916 10914 10911 10909 10908 10905 10901 10898 10895 10892 10889 10887 10884 10882 10879 10876 10873 10870 10867 10863 10860 10856 10852 10849 10846 10843 10840 10836 10833 10830 10828 10825 10822 10820 10818 10815 10812 10809 10805 10802 10799 10797 10794 10791 10789 10785 10780 10777 10776 10775 10772 10770 10769 10769 10766 10764 10762 10761 10759 10756 10753 10750 10747 10743 10740 10737 10733 10730 10727 10724 10722 10721 10720 10719 10719 10718 10718 10717 10716 10716 10716 10717 10718
10916 10913 10910 10908 10906 10903 10902 10900 10896 10893 10890 10888 10885 10883 10880 10877 10874 10871 10867 10864 10861 10858 10855 10851 10847 10843 10841 10838 10834 10830 10827 10824 10821 10818 10815 10813 10810 10808 10804 10800 10796 10794 10791 10788 10787 10784 10783 10780 10777 10772 10770 10768 10766 10764 10762 10761 10759 10756 10753 10751 10748 10744 10741 10738 10734 10730 10727 10724 10721 10717 10714 10711 10709 10708 10707 10706 10706 10705 10704 10703 10702 10701 10701 10702 10703
10913 10909 10906 10903 10900 10897 10896 10895 10891 10887 10885 10883 10880 10878 10875 10872 10869 10865 10862 10859 10856 10853 10849 10846 10843 10839 10836 10832 10828 10824 10820 10817 10814 10811 10808 10806 10803 10800 10796 10791 10788 10786 10784 10781 10780 10778 10776 10773 10770 10767 10764 10761 10759 10757 10754 10752 10750 10747 10743 10741 10737 10733 10729 10726 10722 10717 10714 10711 10708 10704 10701 10698 10696 10695 10694 10693 10692 10690 10688 10687 10686 10685 10686 10687 10689
10907 10905 10902 10898 10895 10891 10889 10888 10886 10882 10879 10876 10874 10873 10870 10866 10862 10860 10856 10853 10850 10847 10843 10840 10838 10834 10831 10827 10822 10818 10814 10811 10808 10805 10802 10799 10796 10791 10787 10783 10780 10778 10776 10775 10773 10772 10770 10767 10763 10760 10758 10754 10751 10748 10744 10741 10739 10735 10732 10730 10726 10721 10717 10713 10708 10704 10701 10698 10695 10692 10689 10686 10684 10683 10681 10679 10676 10674 10672 10671 10670 10670 10671 10673 10675
10901 10900 10898 10894 10890 10887 10883 10882 10881 10878 10874 10871 10869 10868 10864 10860 10857 10855 10851 10847 10844 10841 10837 10834 10832 10828 10825 10821 10816 10811 10807 10803 10800 10798 10796 10792 10787 10783 10780 10776 10774 10771 10768 10767 10765 10764 10762 10759 10755 10752 10749 10746 10742 10739 10735 10731 10728 10724 10719 10716 10713 10709 10704 10700 10695 10690 10688 10686 10683 10680 10676 10672 10671 10670 10668 10665 10661 10657 10657 10656 10656 10656 10657 10658 10660
10895 10894 10893 10891 10888 10883 10878 10875 10875 10873 10869 10866 10865 10865 10861 10856 10853 10850 10845 10841 10838 10834 10831 10827 10824 10821 10818 10814 10810 10805 10801 10797 10793 10790 10789 10785 10780 10776 10773 10769 10767 10763 10761 10758 10756 10754 10752 10749 10744 10741 10738 10734 10731 10727 10724 10719 10716 10712 10708 10704 10700 10696 10692 10689 10683 10678 10674 10672 10672 10670 10665 10659 10658 10658 10656 10651 10647 10643 10642 10642 10641 10642 10643 10644 10646
10890 10888 10888 10886 10884 10880 10875 10870 10868 10867 10864 10860 10859 10860 10857 10853 10848 10844 10839 10834 10831 10828 10824 10819 10816 10813 10810 10806 10803 10800 10797 10792 10787 10783 10781 10777 10773 10769 10766 10762 10759 10756 10753 10751 10747 10745 10743 10740 10735 10730 10726 10722 10718 10714 10710 10706 10702 10699 10696 10692 10689 10685 10681 10678 10673 10667 10660 10657 10658 10659 10654 10646 10644 10647 10644 10637 10633 10631 10629 10628 10627 10628 10630 10632 10635
10884 10883 10882 10880 10879 10877 10873 10867 10862 10860 10858 10855 10853 10852 10850 10847 10842 10838 10833 10828 10824 10821 10817 10812 10808 10805 10802 10798 10795 10794 10790 10785 10780 10777 10774 10771 10767 10762 10758 10754 10751 10748 10746 10743 10740 10738 10735 10731 10726 10720 10714 10711 10706 10702 10698 10695 10691 10687 10684 10681 10677 10674 10671 10667 10663 10657 10649 10644 10644 10647 10642 10632 10630 10635 10633 10624 10620 10620 10618 10615 10614 10616 10618 10620 10624
10878 10876 10874 10873 10872 10871 10869 10864 10859 10855 10851 10848 10847 10845 10842 10839 10836 10831 10826 10821 10817 10813 10810 10806 10801 10798 10794 10790 10787 10785 10782 10777 10773 10769 10765 10763 10760 10755 10751 10746 10742 10740 10738 10734 10732 10729 10726 10722 10717 10710 10703 10700 10696 10692 10688 10685 10682 10677 10674 10670 10666 10662 10659 10655 10650 10645 10637 10631 10631 10634 10630 10621 10618 10622 10620 10611 10608 10608 10606 10603 10603 10605 10608 10610 10614
10870 10868 10867 10865 10863 10862 10861 10859 10855 10851 10846 10841 10840 10839 10835 10831 10828 10824 10818 10814 10810 10806 10803 10799 10795 10791 10786 10782 10778 10776 10772 10768 10765 10762 10758 10755 10752 10749 10744 10739 10735 10731 10728 10724 10721 10717 10713 10709 10706 10700 10693 10688 10685 10682 10678 10675 10672 10669 10665 10660 10655 10651 10647 10642 10636 10631 10624 10618 10616 10619 10619 10611 10607 10610 10607 10600 10597 10596 10594 10593 10593 10596 10598 10601 10604
10863 10861 10860 10858 10856 10853 10851 10850 10848 10844 10840 10835 10832 10831 10828 10823 10820 10816 10811 10806 10802 10798 10795 10791 10788 10784 10779 10774 10771 10768 10764 10760 10756 10754 10752 10748 10745 10741 10736 10731 10726 10721 10716 10712 10709 10706 10701 10697 10694 10689 10683 10678 10675 10672 10668 10665 10662 10659 10655 10650 10644 10640 10637 10631 10624 10617 10611 10604 10600 10604 10607 10602 10596 10598 10596 10589 10586 10586 10583 10582 10584 10587 10589 10591 10594
10857 10855 10852 10851 10849 10847 10844 10841 10840 10837 10833 10828 10824 10822 10820 10817 10813 10809 10804 10798 10794 10791 10788 10784 10780 10775 10771 10767 10764 10760 10757 10752 10747 10744 10743 10739 10735 10731 10727 10722 10717 10712 10707 10702 10699 10696 10692 10687 10684 10680 10675 10670 10666 10662 10657 10654 10651 10648 10645 10639 10633 10629 10626 10620 10613 10605 10599 10592 10586 10589 10595 10592 10585 10585 10585 10579 10577 10577 10574 10573 10575 10578 10579 10582 10585
10850 10847 10844 10842 10840 10839 10836 10833 10831 10829 10825 10820 10815 10812 10811 10810 10807 10802 10797 10792 10787 10783 10781 10778 10773 10767 10763 10760 10756 10752 10749 10744 10740 10737 10733 10729 10725 10721 10717 10713 10709 10703 10698 10693 10689 10686 10682 10677 10672 10668 10664 10659 10656 10651 10646 10642 10639 10636 10633 10628 10622 10617 10614 10609 10602 10595 10588 10581 10575 10578 10584 10581 10573 10572 10573 10571 10569 10567 10564 10564 10566 10569 10570 10573 10578
10842 10840 10837 10833 10830 10829 10827 10824 10821 10819 10816 10812 10807 10803 10801 10801 10798 10795 10790 10785 10780 10775 10772 10770 10766 10760 10756 10752 10748 10745 10741 10737 10733 10730 10725 10719 10715 10710 10706 10702 10698 10693 10687 10683 10679 10676 10672 10666 10661 10656 10651 10646 10643 10639 10634 10630 10626 10623 10620 10615 10609 10604 10601 10596 10590 10585 10579 10570 10566 10570 10573 10569 10563 10560 10563 10564 10561 10556 10555 10556 10557 10560 10562 10566 10570
10835 10833 10830 10826 10822 10820 10818 10815 10812 10810 10807 10802 10798 10795 10792 10791 10789 10786 10782 10778 10773 10769 10765 10762 10757 10752 10748 10744 10740 10737 10734 10729 10724 10721 10716 10710 10705 10700 10696 10692 10687 10682 10677 10672 10668 10665 10661 10656 10651 10647 10642 10637 10632 10627 10622 10617 10612 10609 10605 10601 10595 10590 10587 10582 10577 10574 10569 10560 10557 10562 10563 10558 10553 10551 10553 10557 10553 10545 10545 10548 10550 10551 10555 10559 10563